Weather History for Coatesville, PA

Change the Weather History Date:

Friday, February 15, 2013

  Actual Average (KLNS) Record (KLNS)
Temperature  
Mean Temperature 44 °F -  
Max Temperature 55 °F 41 °F 58 °F (1982)
Min Temperature 32 °F 24 °F 5 °F (1983)
Degree Days  
Heating Degree Days 22    
Moisture  
Dew Point 33 °F    
Average Humidity 73    
Maximum Humidity 100    
Minimum Humidity 41    
Precipitation  
Precipitation 1.84 in - - ()
Sea Level Pressure  
Sea Level Pressure 29.98 in    
Wind  
Wind Speed 5 mph (West)    
Max Wind Speed 14 mph    
Max Gust Speed 17 mph    
Visibility 8 miles    
Events Rain , Snow    
Averages and records for this station are not official NWS values.
T = Trace of Precipitation, MM = Missing Value Source: NWS Daily Summary

Daily Weather History Graph

Daily Weather History Graph

Search for Another Location

Airport:

Trip Planner

Search our weather history database for the weather conditions in past years. The results will help you decide how hot, cold, wet, or windy it might be!

Date:

Astronomy

Feb. 15, 2013 Rise Set
Actual Time 6:55 AM EST 5:39 PM EST
Civil Twilight 6:28 AM EST 6:07 PM EST
Nautical Twilight 5:56 AM EST 6:39 PM EST
Astronomical Twilight 5:25 AM EST 7:10 PM EST
Moon 9:31 AM EST (2/15) 11:38 PM EST (2/15)
Length of Visible Light 11h 39m
Length of Day
10h 43m
Waxing Crescent, 30% of the Moon is Illuminated
Feb 15
Waxing Crescent
Feb 17
First Quarter
Feb 25
Full
Mar 4
Last Quarter
Mar 11
New

Hourly Weather History & Observations

Time (EST) Temp. Windchill Dew Point Humidity Pressure Visibility Wind Dir Wind Speed Gust Speed Precip Events Conditions
12:15 AM 35.6 °F 32.8 °F 28.4 °F 75% 30.00 in 10.0 mi SSW 3.5 mph - N/A   Mostly Cloudy
12:35 AM 35.6 °F 32.8 °F 30.2 °F 81% 30.01 in 10.0 mi SSW 3.5 mph - N/A   Overcast
12:55 AM 35.6 °F - 30.2 °F 81% 30.01 in 10.0 mi Calm Calm - N/A   Overcast
1:15 AM 35.6 °F 31.7 °F 30.2 °F 81% 29.99 in 10.0 mi SSW 4.6 mph - N/A   Mostly Cloudy
1:35 AM 35.6 °F 30.7 °F 30.2 °F 81% 29.99 in 10.0 mi SSW 5.8 mph - N/A   Clear
1:55 AM 35.6 °F 32.8 °F 30.2 °F 81% 29.99 in 10.0 mi South 3.5 mph - N/A   Clear
2:15 AM 33.8 °F - 30.2 °F 87% 29.99 in 10.0 mi Calm Calm - N/A   Clear
2:35 AM 35.6 °F - 32.0 °F 87% 29.99 in 10.0 mi Calm Calm - N/A   Clear
2:55 AM 35.6 °F 32.8 °F 32.0 °F 87% 29.98 in 10.0 mi South 3.5 mph - N/A   Clear
3:15 AM 35.6 °F 31.7 °F 32.0 °F 87% 29.99 in 10.0 mi SSW 4.6 mph - N/A   Partly Cloudy
3:35 AM 35.6 °F 32.8 °F 32.0 °F 87% 29.98 in 10.0 mi SW 3.5 mph - N/A   Partly Cloudy
3:55 AM 33.8 °F 30.8 °F 32.0 °F 93% 29.99 in 8.0 mi SW 3.5 mph - N/A   Clear
4:15 AM 35.6 °F - 32.0 °F 87% 29.99 in 8.0 mi Calm Calm - N/A   Partly Cloudy
4:35 AM 33.8 °F - 32.0 °F 93% 29.99 in 7.0 mi Calm Calm - N/A   Clear
4:55 AM 33.8 °F - 32.0 °F 93% 29.99 in 6.0 mi Calm Calm - N/A   Clear
5:15 AM 33.8 °F - 32.0 °F 93% 29.99 in 6.0 mi Calm Calm - N/A   Clear
5:35 AM 33.8 °F 30.8 °F 32.0 °F 93% 29.99 in 5.0 mi SW 3.5 mph - N/A   Clear
5:55 AM 33.8 °F 30.8 °F 32.0 °F 93% 29.99 in 5.0 mi WSW 3.5 mph - N/A   Scattered Clouds
6:15 AM 33.8 °F - 32.0 °F 93% 29.99 in 4.0 mi Calm Calm - N/A   Partly Cloudy
6:35 AM 32.0 °F 28.7 °F 32.0 °F 100% 30.00 in 4.0 mi WNW 3.5 mph - N/A   Mostly Cloudy
6:55 AM 35.6 °F - 33.8 °F 93% 30.00 in 5.0 mi Calm Calm - N/A   Mostly Cloudy
7:15 AM 33.8 °F 30.8 °F 33.8 °F 100% 30.01 in 4.0 mi WSW 3.5 mph - N/A   Scattered Clouds
7:35 AM 33.8 °F 30.8 °F 33.8 °F 100% 30.02 in 3.0 mi West 3.5 mph - N/A   Clear
7:55 AM 35.6 °F 31.7 °F 33.8 °F 93% 30.02 in 5.0 mi West 4.6 mph - N/A   Clear
8:15 AM 35.6 °F 30.7 °F 33.8 °F 93% 30.02 in 4.0 mi West 5.8 mph - N/A   Clear
8:35 AM 37.4 °F 31.4 °F 33.8 °F 87% 30.02 in 5.0 mi West 8.1 mph - N/A   Haze
8:55 AM 39.2 °F 35.9 °F 33.8 °F 81% 30.02 in 9.0 mi West 4.6 mph - N/A   Clear
9:15 AM 41.0 °F 37.1 °F 32.0 °F 70% 30.02 in 10.0 mi West 5.8 mph - N/A   Clear
9:35 AM 44.6 °F 40.7 °F 33.8 °F 66% 30.01 in 10.0 mi West 6.9 mph - N/A   Clear
9:55 AM 46.4 °F 42.4 °F 32.0 °F 57% 30.02 in 10.0 mi West 8.1 mph - N/A   Clear
10:15 AM 46.4 °F 42.4 °F 33.8 °F 62% 30.02 in 10.0 mi West 8.1 mph - N/A   Clear
10:35 AM 48.2 °F - 32.0 °F 54% 30.02 in 10.0 mi West 8.1 mph - N/A   Clear
10:55 AM 50.0 °F - 33.8 °F 54% 30.02 in 10.0 mi West 8.1 mph - N/A   Clear
11:15 AM 50.0 °F - 33.8 °F 54% 30.01 in 10.0 mi West 10.4 mph - N/A   Clear
11:35 AM 51.8 °F - 33.8 °F 50% 30.00 in 10.0 mi West 8.1 mph - N/A   Clear
11:55 AM 53.6 °F - 33.8 °F 47% 30.00 in 10.0 mi WNW 9.2 mph - N/A   Clear
12:15 PM 51.8 °F - 33.8 °F 50% 29.99 in 10.0 mi WNW 6.9 mph - N/A   Clear
12:35 PM 53.6 °F - 33.8 °F 47% 29.97 in 10.0 mi West 5.8 mph - N/A   Clear
12:55 PM 51.8 °F - 33.8 °F 50% 29.97 in 10.0 mi Calm Calm - N/A   Scattered Clouds
1:15 PM 51.8 °F - 33.8 °F 50% 29.96 in 10.0 mi West 6.9 mph - N/A   Mostly Cloudy
1:35 PM 55.4 °F - 32.0 °F 41% 29.95 in 10.0 mi SW 9.2 mph - N/A   Scattered Clouds
1:55 PM 55.4 °F - 32.0 °F 41% 29.94 in 10.0 mi WSW 9.2 mph - N/A   Scattered Clouds
2:15 PM 55.4 °F - 32.0 °F 41% 29.94 in 10.0 mi WSW 8.1 mph - N/A   Scattered Clouds
2:35 PM 53.6 °F - 32.0 °F 44% 29.94 in 10.0 mi WSW 6.9 mph - N/A   Mostly Cloudy
2:55 PM 51.8 °F - 32.0 °F 47% 29.94 in 10.0 mi West 8.1 mph - N/A   Overcast
3:15 PM 51.8 °F - 32.0 °F 47% 29.94 in 10.0 mi NW 9.2 mph - N/A   Overcast
3:35 PM 51.8 °F - 32.0 °F 47% 29.94 in 10.0 mi WNW 9.2 mph - N/A   Overcast
3:55 PM 51.8 °F - 32.0 °F 47% 29.94 in 10.0 mi NW 9.2 mph - N/A   Mostly Cloudy
4:15 PM 50.0 °F - 32.0 °F 50% 29.94 in 10.0 mi WNW 9.2 mph - N/A   Mostly Cloudy
4:35 PM 51.8 °F - 33.8 °F 50% 29.94 in 10.0 mi NNW 8.1 mph - N/A   Mostly Cloudy
4:55 PM 48.2 °F - 32.0 °F 54% 29.92 in 10.0 mi Calm Calm - N/A   Scattered Clouds
5:15 PM 46.4 °F 45.2 °F 32.0 °F 57% 29.93 in 10.0 mi NW 3.5 mph - N/A   Clear
5:35 PM 46.4 °F 45.2 °F 32.0 °F 57% 29.94 in 10.0 mi WNW 3.5 mph - N/A   Clear
5:55 PM 44.6 °F 41.4 °F 32.0 °F 61% 29.94 in 10.0 mi NW 5.8 mph - N/A   Scattered Clouds
6:15 PM 46.4 °F 42.4 °F 32.0 °F 57% 29.94 in 10.0 mi NNW 8.1 mph - N/A   Overcast
6:35 PM 46.4 °F 42.4 °F 30.2 °F 53% 29.94 in 10.0 mi NW 8.1 mph - N/A   Mostly Cloudy
6:55 PM 46.4 °F 41.9 °F 30.2 °F 53% 29.93 in 10.0 mi NW 9.2 mph - N/A   Mostly Cloudy
7:15 PM 44.6 °F 39.2 °F 30.2 °F 57% 29.95 in 10.0 mi NW 10.4 mph - N/A   Mostly Cloudy
7:35 PM 42.8 °F 35.8 °F 32.0 °F 66% 29.95 in 10.0 mi WNW 13.8 mph - N/A   Mostly Cloudy
7:55 PM 42.8 °F 37.0 °F 32.0 °F 66% 29.95 in 10.0 mi NW 10.4 mph - N/A   Mostly Cloudy
8:15 PM 42.8 °F 36.2 °F 32.0 °F 66% 29.95 in 10.0 mi NW 12.7 mph 17.3 mph N/A   Mostly Cloudy
8:35 PM 39.2 °F 32.5 °F 33.8 °F 81% 29.96 in 10.0 mi NNW 10.4 mph 17.3 mph N/A   Overcast
8:55 PM 39.2 °F 32.0 °F 35.6 °F 87% 29.98 in 7.0 mi NNW 11.5 mph - N/A Rain Light Rain
9:15 PM 37.4 °F 30.8 °F 35.6 °F 93% 30.00 in 3.0 mi NW 9.2 mph - 0.03 in Rain Rain
9:35 PM 35.6 °F 27.1 °F 33.8 °F 93% 30.00 in 2.0 mi NW 12.7 mph - 0.14 in Rain Heavy Rain
9:55 PM 33.8 °F 28.6 °F 33.8 °F 100% 30.00 in 1.5 mi NW 5.8 mph - 0.33 in Snow Light Snow
10:15 PM 33.8 °F 28.6 °F 33.8 °F 100% 30.00 in 1.2 mi NNW 5.8 mph - 0.35 in Snow Light Snow
10:35 PM 33.8 °F 28.6 °F 33.8 °F 100% 30.01 in 1.2 mi NW 5.8 mph - 0.73 in Snow Light Snow
10:55 PM 33.8 °F 29.6 °F 33.8 °F 100% 30.01 in 1.5 mi NW 4.6 mph - 1.07 in Snow Light Snow
11:15 PM 33.8 °F 30.8 °F 33.8 °F 100% 30.00 in 1.2 mi NW 3.5 mph - 0.16 in Snow Light Snow
11:35 PM 33.8 °F 29.6 °F 33.8 °F 100% 30.00 in 3.0 mi NW 4.6 mph - 0.24 in Snow Light Snow
11:55 PM 33.8 °F 29.6 °F 33.8 °F 100% 30.00 in 1.8 mi NW 4.6 mph - 0.44 in Snow Snow